Weather History for Thermal, CA

Change the Weather History Date:

Monday, March 11, 2013

  Actual Average Record
Temperature  
Mean Temperature 62 °F 63 °F  
Max Temperature 85 °F 80 °F 96 °F (1989)
Min Temperature 38 °F 46 °F 37 °F (2006)
Degree Days  
Heating Degree Days 3 3  
Month to date heating degree days 33 46  
Since 1 July heating degree days 1121 1111  
Cooling Degree Days 0 2  
Month to date cooling degree days 9 13  
Year to date cooling degree days 9 25  
Growing Degree Days 13 (Base 50)    
Moisture  
Dew Point 25 °F    
Average Humidity 31    
Maximum Humidity 54    
Minimum Humidity 8    
Precipitation  
Precipitation 0.00 in 0.02 in 0.37 in (1995)
Month to date precipitation 0.07 0.21  
Year to date precipitation 0.44 1.54  
Since 1 July precipitation 2.62 2.92  
Snow  
Snow 0.00 in - - ()
Month to date snowfall 0.0  
Year to date snowfall 0.0  
Since 1 July snowfall 0.0  
Snow Depth 0.00 in    
Sea Level Pressure  
Sea Level Pressure 30.07 in    
Wind  
Wind Speed 5 mph (North)    
Max Wind Speed 10 mph    
Max Gust Speed 15 mph    
Visibility 10 miles    
Events      
T = Trace of Precipitation, MM = Missing Value Source: NWS Daily Summary

Daily Weather History Graph

Daily Weather History Graph

Search for Another Location

Airport:

Trip Planner

Search our weather history database for the weather conditions in past years. The results will help you decide how hot, cold, wet, or windy it might be!

Date:

Astronomy

Mar. 11, 2013 Rise Set
Actual Time 6:59 AM PDT 6:49 PM PDT
Civil Twilight 6:35 AM PDT 7:14 PM PDT
Nautical Twilight 6:06 AM PDT 7:43 PM PDT
Astronomical Twilight 5:37 AM PDT 8:12 PM PDT
Moon 6:37 AM PDT (3/11) 7:03 PM PDT (3/11)
Length of Visible Light 12h 39m
Length of Day
11h 49m
Waning Crescent, 0% of the Moon is Illuminated
Mar 11
Waning Crescent
Mar 11
New
Mar 19
First Quarter
Mar 27
Full
Apr 2
Last Quarter

Hourly Weather History & Observations

Time (PDT) Temp. Windchill Dew Point Humidity Pressure Visibility Wind Dir Wind Speed Gust Speed Precip Events Conditions
12:52 AM 48.9 °F - 24.1 °F 38% 30.14 in 10.0 mi NNW 3.5 mph - N/A   Clear
1:52 AM 52.0 °F - 26.1 °F 37% 30.14 in 10.0 mi North 8.1 mph - N/A   Clear
3:52 AM 46.9 °F - 26.1 °F 44% 30.12 in 10.0 mi North 3.5 mph - N/A   Clear
4:52 AM 50.0 °F - 24.1 °F 36% 30.12 in 10.0 mi NNE 6.9 mph - N/A   Clear
5:52 AM 43.0 °F 41.3 °F 25.0 °F 49% 30.12 in 10.0 mi NNW 3.5 mph - N/A   Clear
6:52 AM 42.1 °F 36.1 °F 24.1 °F 49% 30.13 in 10.0 mi NNW 10.4 mph - N/A   Clear
7:52 AM 52.0 °F - 25.0 °F 35% 30.14 in 10.0 mi North 4.6 mph - N/A   Clear
8:52 AM 62.1 °F - 26.1 °F 25% 30.15 in 10.0 mi NNW 6.9 mph - N/A   Clear
9:52 AM 68.0 °F - 26.1 °F 21% 30.15 in 10.0 mi Calm Calm - N/A   Clear
10:52 AM 73.9 °F - 23.0 °F 15% 30.14 in 10.0 mi Calm Calm - N/A   Clear
11:52 AM 79.0 °F - 18.0 °F 10% 30.11 in 10.0 mi Calm Calm - N/A   Clear
12:52 PM 82.0 °F - 21.9 °F 11% 30.09 in 10.0 mi Variable 6.9 mph - N/A   Clear
1:52 PM 82.9 °F - 23.0 °F 11% 30.05 in 10.0 mi SSE 9.2 mph - N/A   Clear
2:52 PM 84.0 °F - 16.0 °F 8% 30.02 in 10.0 mi Variable 6.9 mph - N/A   Clear
3:52 PM 84.9 °F - 16.0 °F 8% 30.00 in 10.0 mi SSE 6.9 mph - N/A   Clear
4:52 PM 82.9 °F - 18.0 °F 9% 29.98 in 10.0 mi SE 9.2 mph - N/A   Clear
5:52 PM 80.1 °F - 25.0 °F 13% 29.96 in 10.0 mi SSE 8.1 mph - N/A   Clear
6:52 PM 71.1 °F - 30.0 °F 22% 29.96 in 10.0 mi SSE 5.8 mph - N/A   Clear
7:52 PM 61.0 °F - 32.0 °F 34% 29.97 in 10.0 mi South 4.6 mph - N/A   Clear
8:52 PM 57.0 °F - 33.1 °F 40% 29.99 in 10.0 mi NE 4.6 mph - N/A   Clear
9:52 PM 55.0 °F - 32.0 °F 42% 30.01 in 10.0 mi NNE 3.5 mph - N/A   Clear
10:52 PM 55.9 °F - 34.0 °F 44% 30.03 in 10.0 mi NW 4.6 mph - N/A   Clear
11:52 PM 52.0 °F - 35.1 °F 53% 30.03 in 10.0 mi North 3.5 mph - N/A   Clear